AirNav   Air Wisconsin pilot careers
 
 487 users online  

9MO5 Hindman Airport
Sparta, Missouri, USA

GOING TO SPARTA?


FAA INFORMATION EFFECTIVE 03 JANUARY 2019

Location

FAA Identifier: 9MO5
Lat/Long: 37-03-45.0000N / 093-05-54.2500W
37-03.750000N / 093-05.904167W
37.0625000 / -93.0984028
(estimated)
Elevation: 1380 ft. / 421 m (estimated)
Variation: 04E (1985)
From city: 3 miles NW of SPARTA, MO
Time zone: UTC -6 (UTC -5 during Daylight Saving Time)
Zip code: 65753

Airport Operations

Airport use: Private use. Permission required prior to landing
Activation date: 12/1972
Control tower: no
ARTCC: KANSAS CITY CENTER
FSS: COLUMBIA FLIGHT SERVICE STATION
Attendance: UNATNDD
Wind indicator: no
Segmented circle: no

Airport Communications

WX ASOS at SGF (18 nm NW): PHONE 417-863-6158

Nearby radio navigation aids

VOR radial/distance  VOR name  Freq  Var
DGDr281/10.9DOGWOOD VORTAC109.4001E
SGFr143/20.9SPRINGFIELD VORTAC116.9004E

Airport Services

Runway Information

Runway 18/36

Dimensions: 2300 x 60 ft. / 701 x 18 m
Surface: turf
RUNWAY 18  RUNWAY 36
Traffic pattern: leftleft

Airport Ownership and Management from official FAA records

Ownership: Privately-owned
Owner: ANNA HINDMAN
254 ROLLER ROAD
ROGERSVILLE, MO 65742
Phone 417-753-2093
Manager: BRAD WAKEFIELD
201 MISSION POINT ROAD
ROGERSVILLE, MO 65742
Phone 417-860-2040

Airport Operational Statistics

Aircraft based on the field: 1
Single engine airplanes: 1
    

Instrument Procedures

There are no published instrument procedures at 9MO5.

Some nearby airports with instrument procedures:

3DW - Downtown Airport (12 nm NW)
KSGF - Springfield-Branson National Airport (18 nm NW)
KAOV - Ava Bill Martin Memorial Airport (21 nm E)
KFWB - Branson West Municipal Airport - Emerson Field (26 nm SW)
KPLK - M Graham Clark Downtown Airport (27 nm S)
 
Loc | Ops | Rwys | IFR | FBO | Links
Com | Nav | Svcs | Stats | Notes

Kansas City Aviation Department
 
Area around 9MO5 (Hindman Airport)
 
Road maps at: MapQuest Bing Google
 
Aerial photo
No photo
 
Sectional chart

 
Airport distance calculator
Flying to Hindman Airport? Find the distance to fly.

From to 9MO5

Sunrise and sunset
Times for 16-Jan-2019
 Local
(UTC-6)
 Zulu
(UTC)
Morning civil twilight06:5712:57
Sunrise07:2613:26
Sunset17:1923:19
Evening civil twilight17:4723:47

Current date and time
Zulu (UTC)  16-Jan-2019 06:22:59
Local (UTC-6)  16-Jan-2019 00:22:59
 
METAR
KSGF 
17nm NW 
160552Z 17005KT 7SM CLR 01/M01 A3017 RMK AO2 SLP226 T00061011 10044 20006 400671011 50003
KFWB 
26nm SW 
160555Z AUTO 25005KT 7SM BKN036 03/03 A3020 RMK AO2
KBBG 
32nm S 
160555Z AUTO 23003KT 10SM CLR 03/02 A3020 RMK AO2
TAF
KSGF 
17nm NW 
160520Z 1606/1706 19005KT P6SM SKC FM160830 21006KT P6SM OVC025 FM161300 20005KT P6SM VCSH OVC009 FM162100 17006KT P6SM OVC018 FM170000 14006KT P6SM OVC020 PROB30 1701/1705 4SM -RA OVC005
NOTAMs
Click for the latest NOTAMs
NOTAMs are issued by the DoD/FAA and will open in a separate window not controlled by AirNav.

 

 
 

Would you like to see your business listed on this page?

 If your business provides an interesting product or service to pilots, flight crews, aircraft, or users of the Hindman Airport, you should consider listing it here.  To start the listing process, click on the button below
 
Add a business
 

Other Pages about Hindman Airport

Update a link
 
Copyright © AirNav, LLC. All rights reserved. Privacy Policy  Contact